Temp
-12 -12 -12 -13 -12 -13 -13 -14 -13 -13 -13 -13 -13 -13 -13 -13 -13 -13 -13 -13 -13 -12 -13 -13 -13 -13 -13 -13 -13 -13 -13 -13
-13 -13 -13 -13 -13 -13 -13 -13 -13 -13 -13 -12 -13 -13 -13 -13 -13 -13 -12 -13 -13 -13 -13 -13 -13 -13 -13 -13 -13 -14 -13 -13
-14 -14 -14 -14 -14 -13 -13 -13 -14 -13 -12 -12 -13 -13 -13 -13 -13 -13 -13 -13 -14 -13 -13 -12 -12 -13 -13 -13 -13 -13 -14 -14
-14 -14 -14 -15 -15 -14 -13 -13 -13 -14 -13 -12 -13 -14 -14 -13 -14 -15 -14 -14 -13 -13 -13 -12 -12 -13 -13 -13 -14 -14 -14 -14
-15 -14 -14 -14 -14 -13 -13 -13 -13 -13 -13 -12 -12 -13 -13 -13 -13 -13 -13 -13 -13 -13 -13 -13 -13 -13 -13 -13 -14 -14 -14 -14
-15 -15 -14 -14 -14 -14 -13 -13 -13 -13 -13 -13 -12 -12 -13 -13 -14 -14 -14 -13 -13 -13 -13 -13 -13 -13 -13 -13 -13 -13 -13 -14
-16 -16 -15 -14 -13 -14 -13 -14 -14 -14 -14 -13 -13 -13 -13 -13 -14 -14 -14 -13 -13 -13 -13 -13 -13 -13 -13 -13 -14 -13 -13 -14
-16 -16 -15 -15 -14 -14 -14 -14 -14 -14 -13 -13 -13 -13 -13 -14 -14 -14 -14 -14 -13 -13 -13 -13 -13 -13 -13 -13 -13 -13 -13 -14
-16 -15 -15 -15 -14 -14 -14 -14 -14 -13 -13 -13 -14 -14 -13 -13 -14 -14 -14 -14 -13 -13 -13 -13 -13 -13 -13 -13 -13 -13 -13 -14
-16 -16 -16 -16 -15 -15 -15 -15 -15 -15 -15 -14 -15 -14 -14 -14 -13 -14 -13 -14 -13 -13 -13 -13 -12 -13 -13 -12 -13 -13 -14 -14
-16 -16 -15 -15 -16 -15 -15 -15 -15 -15 -15 -15 -15 -15 -15 -14 -14 -13 -13 -14 -13 -13 -13 -12 -12 -13 -13 -12 -12 -12 -13 -14
-16 -16 -16 -16 -16 -16 -16 -16 -15 -15 -15 -15 -15 -15 -15 -14 -14 -13 -13 -13 -13 -13 -13 -12 -12 -13 -13 -12 -12 -12 -13 -14
-16 -16 -16 -16 -16 -16 -16 -15 -15 -16 -15 -16 -15 -16 -15 -15 -14 -15 -13 -13 -14 -13 -13 -13 -13 -13 -13 -12 -12 -12 -13 -13
-16 -16 -16 -16 -16 -17 -16 -16 -16 -16 -16 -16 -16 -15 -14 -14 -15 -15 -14 -14 -13 -14 -14 -13 -13 -13 -13 -13 -12 -12 -13 -13
-17 -17 -17 -17 -17 -17 -17 -17 -17 -17 -17 -16 -15 -15 -15 -14 -14 -14 -14 -15 -14 -14 -14 -13 -13 -13 -13 -13 -12 -12 -13 -13
-17 -17 -17 -17 -17 -17 -17 -17 -17 -17 -17 -16 -16 -16 -15 -16 -14 -14 -14 -15 -15 -14 -14 -14 -13 -13 -13 -13 -13 -13 -13 -14
-17 -18 -18 -18 -18 -18 -18 -17 -16 -17 -17 -17 -17 -17 -16 -16 -15 -15 -15 -14 -14 -14 -14 -14 -13 -13 -13 -13 -13 -13 -13 -14
-18 -18 -18 -18 -17 -17 -16 -17 -17 -18 -17 -17 -17 -17 -17 -16 -16 -15 -15 -14 -14 -13 -13 -13 -13 -13 -13 -13 -13 -13 -14 -14
-19 -19 -19 -19 -18 -18 -17 -17 -17 -17 -17 -17 -16 -16 -16 -16 -16 -15 -15 -14 -14 -13 -13 -13 -13 -13 -13 -13 -13 -14 -14 -14
Height
5719 5721 5726 5730 5741 5746 5749 5753 5756 5758 5760 5759 5762 5765 5767 5769 5771 5773 5772 5773 5774 5774 5775 5776 5776 5777 5776 5776 5775 5774 5773 5771
5707 5713 5716 5720 5726 5735 5738 5743 5748 5750 5753 5754 5756 5759 5761 5762 5764 5764 5764 5766 5767 5768 5768 5769 5769 5771 5770 5770 5769 5768 5767 5766
5693 5701 5706 5709 5713 5722 5729 5732 5736 5741 5746 5748 5748 5750 5753 5753 5755 5757 5759 5760 5760 5760 5760 5761 5763 5764 5764 5764 5763 5762 5762 5760
5680 5686 5693 5698 5703 5708 5717 5722 5725 5729 5734 5739 5741 5742 5741 5745 5748 5747 5749 5750 5752 5752 5754 5755 5756 5757 5757 5757 5756 5756 5756 5754
5666 5667 5674 5682 5690 5696 5701 5709 5713 5717 5722 5729 5732 5733 5730 5736 5735 5738 5740 5742 5744 5745 5746 5748 5748 5749 5750 5750 5749 5749 5749 5748
5650 5655 5660 5669 5681 5687 5689 5698 5704 5709 5711 5715 5720 5722 5720 5719 5725 5729 5734 5736 5736 5737 5738 5740 5741 5741 5742 5742 5742 5741 5742 5741
5639 5645 5651 5660 5670 5677 5682 5688 5694 5698 5703 5706 5707 5709 5709 5709 5713 5719 5722 5725 5726 5727 5728 5730 5732 5733 5734 5734 5734 5733 5734 5734
5628 5637 5644 5653 5661 5667 5674 5678 5682 5687 5692 5695 5697 5698 5699 5703 5707 5711 5715 5715 5716 5719 5719 5722 5723 5724 5725 5725 5726 5726 5727 5726
5620 5628 5635 5641 5649 5656 5662 5667 5672 5676 5680 5684 5686 5688 5691 5693 5695 5699 5704 5705 5706 5708 5709 5711 5714 5715 5716 5716 5717 5718 5720 5719
5613 5620 5626 5632 5639 5646 5652 5657 5661 5665 5668 5671 5674 5677 5679 5683 5685 5688 5693 5693 5696 5698 5699 5701 5704 5706 5707 5707 5708 5710 5711 5711
5608 5614 5619 5625 5632 5637 5643 5646 5650 5654 5657 5659 5662 5666 5668 5671 5673 5675 5680 5683 5685 5686 5688 5692 5695 5696 5697 5698 5699 5701 5702 5702
5602 5608 5612 5617 5624 5630 5634 5639 5642 5645 5648 5651 5653 5654 5656 5657 5659 5662 5667 5671 5673 5674 5677 5681 5684 5687 5688 5689 5691 5692 5693 5693
5596 5602 5608 5612 5616 5619 5621 5625 5631 5636 5639 5641 5644 5646 5646 5644 5645 5648 5652 5656 5660 5662 5667 5670 5673 5677 5678 5680 5682 5684 5684 5685
5590 5596 5600 5604 5608 5613 5618 5622 5625 5626 5628 5629 5631 5631 5633 5633 5634 5636 5638 5642 5646 5650 5654 5659 5662 5666 5667 5670 5673 5675 5676 5676
5585 5590 5595 5600 5603 5605 5609 5612 5614 5616 5617 5619 5620 5620 5620 5622 5622 5623 5625 5628 5632 5637 5642 5648 5651 5654 5656 5658 5662 5664 5666 5667
5584 5587 5589 5590 5595 5598 5601 5603 5607 5608 5608 5609 5609 5608 5609 5609 5610 5612 5614 5616 5620 5625 5630 5635 5639 5642 5645 5648 5652 5654 5656 5658
5578 5578 5583 5585 5589 5590 5595 5598 5598 5598 5597 5598 5598 5598 5599 5599 5601 5604 5605 5607 5609 5613 5619 5623 5627 5630 5633 5637 5640 5644 5645 5648
5573 5577 5579 5582 5584 5585 5588 5589 5589 5589 5588 5587 5587 5588 5589 5590 5592 5593 5595 5596 5599 5603 5607 5612 5616 5618 5621 5625 5628 5632 5635 5638
5569 5571 5575 5578 5580 5581 5582 5582 5581 5581 5580 5579 5578 5579 5579 5579 5581 5582 5584 5586 5589 5592 5595 5599 5603 5607 5609 5612 5616 5621 5625 5627
Wind_Speed
65 64 59 57 45 35 34 38 36 37 35 34 34 33 32 33 31 28 30 31 31 29 27 26 24 25 25 25 23 23 24 24
65 62 60 58 50 42 38 40 38 38 38 36 32 32 31 32 32 33 33 34 32 31 31 29 28 28 28 27 26 24 23 26
67 63 61 59 56 48 40 41 39 38 36 34 33 35 33 34 36 36 33 33 34 34 36 33 31 30 29 28 28 26 25 26
69 71 70 66 64 57 47 42 43 42 41 38 34 37 41 41 36 36 35 35 37 38 39 35 32 30 30 29 30 29 27 27
68 72 74 75 70 62 59 48 48 46 47 44 42 41 48 43 43 41 33 37 39 41 40 36 34 32 31 31 33 31 29 29
65 68 70 67 63 62 64 50 49 50 50 48 49 50 50 44 40 34 36 39 42 43 42 39 36 34 33 33 35 33 32 31
62 62 60 63 60 60 57 48 49 49 49 47 46 50 42 36 34 35 37 38 41 42 42 40 38 34 34 35 37 36 35 33
53 57 59 56 57 57 52 52 50 51 53 51 49 52 45 41 39 39 39 40 41 40 41 40 39 35 35 37 38 39 36 35
40 41 44 48 48 52 51 49 48 49 48 46 46 50 48 46 43 45 41 43 44 45 42 40 40 39 37 37 40 39 36 35
44 44 46 47 48 50 49 46 45 45 45 42 41 43 46 50 52 50 46 49 42 47 45 43 42 41 41 38 40 37 36 34
42 46 46 45 47 48 47 46 48 46 45 46 47 48 49 49 51 55 47 47 46 46 48 45 41 42 41 39 38 37 35 34
42 46 46 54 52 54 52 51 53 54 52 53 54 55 59 60 62 60 54 47 49 47 48 46 43 41 42 39 37 38 38 35
35 40 47 55 46 51 50 50 52 52 57 57 63 66 63 63 64 60 58 52 49 49 48 47 46 41 43 40 37 40 39 35
38 43 45 43 47 47 49 52 50 50 43 49 44 41 47 52 51 54 54 52 50 52 50 45 45 43 42 42 38 40 41 38
30 31 32 40 40 36 34 33 35 37 40 40 44 47 45 44 44 46 45 48 48 47 48 42 43 45 43 43 41 40 41 40
31 38 34 33 40 39 39 41 42 43 44 46 47 40 43 44 42 42 42 46 47 49 47 46 44 47 44 44 41 40 41 41
36 19 24 19 20 20 28 33 35 41 44 46 44 39 37 39 42 45 41 41 39 42 46 46 44 44 43 45 42 42 43 44
23 19 20 25 19 20 22 25 26 31 31 34 35 39 36 36 37 36 40 39 40 42 42 42 42 44 46 46 44 44 45 45
14 16 18 20 21 22 23 26 28 32 31 33 34 34 37 38 43 40 37 38 39 39 40 42 43 43 44 47 45 44 46 45
Wind_Direction
245 249 251 255 254 245 235 241 241 240 237 235 240 244 247 254 260 259 260 263 267 273 275 275 276 277 279 280 279 278 278 280
238 244 248 252 252 245 241 241 243 239 237 237 238 244 244 240 244 251 256 261 266 269 270 269 270 271 276 280 279 278 277 277
233 239 245 250 253 250 243 243 244 246 243 242 236 248 245 242 236 247 255 259 259 259 262 264 266 268 275 278 278 278 277 274
226 229 234 240 247 249 240 238 241 244 243 240 234 242 246 244 237 236 246 249 254 256 261 269 270 269 271 274 275 275 275 274
220 229 233 233 236 243 246 235 240 246 251 251 243 239 242 245 245 243 247 251 254 256 259 262 266 268 269 271 271 273 274 273
217 225 229 233 236 239 243 238 238 244 250 256 254 244 245 241 237 251 252 255 257 259 259 261 262 263 267 270 269 272 272 272
216 219 226 231 230 236 240 239 238 242 250 254 255 257 244 250 249 252 245 252 257 257 258 260 262 262 265 268 267 270 273 269
214 218 223 229 233 237 239 241 243 243 244 246 247 253 255 252 251 251 249 252 256 258 259 264 266 264 264 265 266 267 269 267
213 214 216 223 228 236 239 240 242 245 248 249 252 252 255 258 260 251 247 248 252 256 258 261 264 266 264 262 264 264 266 263
213 214 218 225 228 231 237 243 246 250 252 255 262 261 257 254 254 253 246 245 243 251 254 259 262 263 261 258 261 265 257 259
212 221 223 222 227 232 237 242 244 247 252 258 262 265 258 259 255 252 253 248 244 247 252 255 259 259 255 255 258 261 252 253
222 229 229 226 231 231 235 238 244 249 251 252 260 266 259 265 262 258 256 251 243 243 250 253 255 254 252 249 254 259 252 251
229 231 239 240 239 237 245 241 243 243 247 248 251 259 260 262 263 254 254 249 244 244 248 252 254 251 250 249 254 259 253 251
235 237 239 244 251 257 256 256 256 254 256 255 254 260 257 257 254 249 251 251 244 241 246 250 252 249 246 249 252 256 254 250
233 243 246 245 249 248 249 255 260 262 267 266 271 275 260 261 254 250 249 249 245 244 245 244 247 248 246 248 249 251 253 251
230 230 234 232 231 234 242 256 256 270 269 271 273 273 265 264 255 251 249 249 243 239 242 241 244 246 247 248 248 248 253 253
224 224 221 237 244 245 249 257 271 266 265 265 267 268 264 261 257 250 248 248 247 241 241 245 243 244 246 248 249 250 251 253
224 231 241 242 254 256 263 265 282 273 272 272 269 261 258 263 262 257 248 247 245 245 245 244 243 244 246 247 249 249 251 251
243 249 242 239 245 252 261 269 275 274 271 274 274 272 268 262 260 262 260 250 246 247 246 245 245 245 246 248 247 248 249 248